Tracking 30970 objects as of 3-Jul-2025
HD Live streaming from Space Station
objects crossing your sky now

FREGAT R/B

Track FREGAT R/B now!


NORAD ID: 28133
Int'l Code: 2003-059B
Perigee: 4,475.9 km
Apogee: 35,743.7 km
Inclination: 24.0 °
Period: 714.8 minutes
Semi major axis: 26480 km
RCS: 9.0569 m2 (large)
Launch date: December 27, 2003
Source: Commonwealth of Independent States (former USSR) (CIS)
Launch site: TYURATAM MISSILE AND SPACE COMPLEX (TTMTR)

Note: This is a ROCKET BODY
Your satellite tracking list
FENGYUN 1C DEB
Track 1 satellite(s)




NASA's NSSDC Master Catalog

Two Line Element Set (TLE):
1 28133U 03059B   25180.81485603 -.00000744  00000-0  00000-0 0  9991
2 28133  24.0297 312.9964 5903851 278.7866  22.4153  2.01467558158337
Source of the keplerian elements: AFSPC